Ashton, Iowa
Current Conditions -  °F | °C
As of 7:15 PM on Saturday 25 Oct 2014 (Local Time) from KSHL Reporting Station
Clear Clear  
Wind Chill: 50°   Ceiling: Unl
Heat Index: 50°   Visibility: 10mi
Dew Point: 36°   Wind: 7mph
Humidity: 58%   Direction: 50°NE
Pressure: 30.06"   Gusts: NA
Location:  43.31°N, 95.79°W
Report Text: KSHL 260015Z AUTO 05006KT 10SM CLR 10/02 A3006 RMK AO2
Loading
Personal Weather Stations






























Interactive Weather Map
Tropical Storm Tracking
New forecast layout! Learn more

10-Day Weather Forecast

Advertisements
Track Severe Weather on mobile